Forks, WA

3:58 PM PST on February 19, 2017 (GMT -0800)
Quillayute

Weather History for KUIL - April, 2012

Change the Weather History Date:

Tuesday, April 3, 2012

  Actual Average Record
Temperature  
Mean Temperature 41 °F 46 °F  
Max Temperature 47 °F 53 °F 65 °F (1972)
Min Temperature 35 °F 38 °F 26 °F (2007)
Degree Days  
Heating Degree Days 24 20  
Month to date heating degree days 60  
Since 1 July heating degree days 4553  
Cooling Degree Days 0 0  
Month to date cooling degree days 0  
Year to date cooling degree days 0  
Moisture  
Dew Point 41 °F    
Average Humidity 96    
Maximum Humidity 100    
Minimum Humidity 81    
Precipitation  
Precipitation 1.49 in 0.31 in 2.42 in (1991)
Month to date precipitation 0.95  
Year to date precipitation 36.74  
Sea Level Pressure  
Sea Level Pressure 29.85 in    
Wind  
Wind Speed 6 mph (SSE)    
Max Wind Speed 20 mph    
Max Gust Speed 25 mph    
Visibility 6 miles    
Events Rain    
T = Trace of Precipitation, MM = Missing Value Source: NWS Daily Summary

Daily Weather History Graph

Daily Weather History Graph

Search for Another Location

Airport or City:

Trip Planner

Search our weather history database for the weather conditions in past years. The results will help you decide how hot, cold, wet, or windy it might be!

Date:

Astronomy

Apr. 03, 2012 Rise Set
Actual Time 6:51 AM PDT 7:52 PM PDT
Civil Twilight 6:19 AM PDT 8:23 PM PDT
Nautical Twilight 5:41 AM PDT 9:01 PM PDT
Astronomical Twilight 5:01 AM PDT 9:42 PM PDT
Moon 4:30 PM PDT (4/3) 4:57 AM PDT (4/3)
Length of Visible Light 14h 03m
Length of Day
13h 00m
Waxing Gibbous, 87% of the Moon is Illuminated
Apr 3
Waxing Gibbous
Apr 6
Full
Apr 13
Last Quarter
Apr 21
New
Apr 29
First Quarter

Hourly Weather History & Observations

Time (PDT) Temp. Windchill Dew Point Humidity Pressure Visibility Wind Dir Wind Speed Gust Speed Precip Events Conditions
12:36 AM 46.4 °F 42.4 °F 46.4 °F 100% 29.80 in 3.0 mi SSE 8.1 mph - 0.21 in Rain Rain
12:50 AM 46.4 °F 42.4 °F 46.4 °F 100% 29.80 in 3.0 mi South 8.1 mph 21.9 mph 0.26 in Rain Rain
12:53 AM 46.0 °F 41.0 °F 46.0 °F 100% 29.80 in 2.5 mi South 10.4 mph 23.0 mph 0.27 in Rain Rain
1:12 AM 46.4 °F 39.8 °F 46.4 °F 100% 29.79 in 3.0 mi SSE 16.1 mph 24.2 mph 0.08 in Rain Rain
1:19 AM 46.4 °F 41.5 °F 46.4 °F 100% 29.79 in 2.5 mi South 10.4 mph 24.2 mph 0.11 in Rain Heavy Rain
1:33 AM 46.4 °F 42.4 °F 46.4 °F 100% 29.78 in 3.0 mi South 8.1 mph 21.9 mph 0.18 in Rain Rain
1:53 AM 46.9 °F - 46.0 °F 97% 29.78 in 3.0 mi South 9.2 mph 19.6 mph 0.24 in Rain Rain
2:10 AM 46.4 °F 41.1 °F 46.4 °F 100% 29.77 in 3.0 mi SSE 11.5 mph 20.7 mph 0.07 in Rain Rain
2:17 AM 46.4 °F 41.9 °F 46.4 °F 100% 29.77 in 3.0 mi SSE 9.2 mph 20.7 mph 0.09 in Rain Rain
2:53 AM 46.9 °F - 46.0 °F 97% 29.74 in 4.0 mi South 9.2 mph 21.9 mph 0.21 in Rain Rain
3:33 AM 46.4 °F 41.9 °F 46.4 °F 100% 29.73 in 2.5 mi South 9.2 mph - 0.17 in Rain Rain
3:53 AM 46.9 °F - 46.9 °F 100% 29.74 in 2.5 mi West 11.5 mph - 0.28 in Rain Heavy Rain
4:02 AM 44.6 °F 39.2 °F 44.6 °F 100% 29.74 in 2.0 mi WNW 10.4 mph - 0.09 in Rain Heavy Rain
4:14 AM 44.6 °F 40.2 °F 44.6 °F 100% 29.74 in 4.0 mi WNW 8.1 mph - 0.12 in Rain Rain
4:39 AM 42.8 °F 37.0 °F 42.8 °F 100% 29.76 in 4.0 mi WNW 10.4 mph 19.6 mph 0.18 in Rain Rain
4:50 AM 41.0 °F 35.2 °F 39.2 °F 93% 29.76 in 4.0 mi WNW 9.2 mph 19.6 mph 0.21 in Rain Rain
4:53 AM 41.0 °F 35.8 °F 39.9 °F 96% 29.76 in 4.0 mi WNW 8.1 mph 19.6 mph 0.22 in Rain Rain
5:53 AM 37.0 °F 34.5 °F 36.0 °F 96% 29.78 in 3.0 mi Variable 3.5 mph - 0.16 in Rain Rain
6:01 AM 37.4 °F - 35.6 °F 93% 29.78 in 3.0 mi Calm Calm - 0.02 in Rain Light Rain
6:53 AM 36.0 °F 31.1 °F 36.0 °F 100% 29.79 in 10.0 mi East 5.8 mph - 0.09 in Rain Light Rain
7:06 AM 35.6 °F 30.7 °F 35.6 °F 100% 29.79 in 6.0 mi East 5.8 mph - 0.02 in Rain Light Rain
7:38 AM 35.6 °F 30.7 °F 35.6 °F 100% 29.79 in 8.0 mi East 5.8 mph - 0.05 in Rain Light Rain
7:53 AM 35.1 °F 30.1 °F 35.1 °F 100% 29.80 in 5.0 mi East 5.8 mph - 0.06 in Rain Light Rain
8:53 AM 35.1 °F 31.0 °F 35.1 °F 100% 29.81 in 7.0 mi East 4.6 mph - 0.05 in Rain Light Rain
9:20 AM 35.6 °F - 35.6 °F 100% 29.82 in 6.0 mi Calm Calm - 0.02 in Rain Light Rain
9:44 AM 37.4 °F 33.8 °F 37.4 °F 100% 29.81 in 10.0 mi East 4.6 mph - 0.04 in Rain Light Rain
9:53 AM 37.0 °F 33.3 °F 37.0 °F 100% 29.81 in 10.0 mi East 4.6 mph - 0.04 in   Overcast
10:29 AM 39.2 °F 37.0 °F 39.2 °F 100% 29.83 in 10.0 mi SSE 3.5 mph - N/A   Overcast
10:36 AM 39.2 °F - 39.2 °F 100% 29.83 in 10.0 mi Calm Calm - N/A   Overcast
10:53 AM 39.9 °F - 39.0 °F 97% 29.84 in 10.0 mi Calm Calm - N/A   Overcast
11:26 AM 41.0 °F 39.0 °F 39.2 °F 93% 29.85 in 10.0 mi Variable 3.5 mph - N/A   Overcast
11:53 AM 42.1 °F 40.2 °F 39.9 °F 92% 29.86 in 10.0 mi Variable 3.5 mph - 0.00 in   Overcast
12:14 PM 42.8 °F 39.3 °F 39.2 °F 87% 29.87 in 9.0 mi Variable 5.8 mph - 0.00 in Rain Light Rain
12:45 PM 42.8 °F 38.6 °F 41.0 °F 93% 29.87 in 6.0 mi Variable 6.9 mph - 0.00 in Rain Light Rain
12:53 PM 43.0 °F 38.2 °F 39.9 °F 89% 29.88 in 10.0 mi SSE 8.1 mph - 0.00 in   Overcast
1:33 PM 41.0 °F 34.7 °F 39.2 °F 93% 29.89 in 2.5 mi WSW 10.4 mph 18.4 mph 0.01 in Rain Rain
1:38 PM 39.2 °F 32.5 °F 39.2 °F 100% 29.89 in 1.5 mi West 10.4 mph - 0.03 in Rain Rain
1:48 PM 42.8 °F 38.6 °F 41.0 °F 93% 29.90 in 2.5 mi SSW 6.9 mph - 0.05 in Rain Light Rain
1:53 PM 42.1 °F 37.1 °F 41.0 °F 96% 29.90 in 2.0 mi SW 8.1 mph - 0.06 in Rain Light Rain
1:58 PM 42.8 °F 39.3 °F 42.8 °F 100% 29.90 in 4.0 mi SW 5.8 mph - 0.00 in Rain Light Rain
2:40 PM 37.4 °F 30.3 °F 37.4 °F 100% 29.92 in 1.8 mi WSW 10.4 mph 25.3 mph 0.03 in Rain Rain
2:49 PM 39.2 °F 32.5 °F 37.4 °F 93% 29.92 in 2.5 mi West 10.4 mph - 0.05 in Rain Light Rain
2:53 PM 39.0 °F 34.0 °F 37.9 °F 96% 29.93 in 3.0 mi WSW 6.9 mph - 0.06 in Rain Light Rain
3:35 PM 39.2 °F 34.2 °F 39.2 °F 100% 29.92 in 6.0 mi ESE 6.9 mph - 0.05 in Rain Light Rain
3:48 PM 39.2 °F 35.0 °F 39.2 °F 100% 29.92 in 10.0 mi ESE 5.8 mph - 0.05 in   Overcast
3:53 PM 41.0 °F 37.1 °F 39.9 °F 96% 29.93 in 10.0 mi ESE 5.8 mph - 0.05 in   Mostly Cloudy
4:07 PM 42.8 °F 41.1 °F 41.0 °F 93% 29.92 in 10.0 mi Variable 3.5 mph - N/A   Mostly Cloudy
4:32 PM 44.6 °F 43.1 °F 42.8 °F 93% 29.92 in 10.0 mi Variable 3.5 mph - N/A   Mostly Cloudy
4:50 PM 44.6 °F 42.2 °F 41.0 °F 87% 29.93 in 10.0 mi SSE 4.6 mph - N/A   Mostly Cloudy
4:53 PM 45.0 °F 41.2 °F 42.1 °F 90% 29.93 in 10.0 mi SSE 6.9 mph - N/A   Overcast
5:53 PM 46.0 °F 41.4 °F 41.0 °F 83% 29.94 in 10.0 mi South 9.2 mph - N/A   Scattered Clouds
6:43 PM 44.6 °F 43.1 °F 39.2 °F 81% 29.94 in 10.0 mi Variable 3.5 mph - N/A   Mostly Cloudy
6:53 PM 43.0 °F 41.3 °F 39.9 °F 89% 29.95 in 10.0 mi Variable 3.5 mph - N/A   Scattered Clouds
7:53 PM 41.0 °F 38.0 °F 39.9 °F 96% 29.95 in 10.0 mi SE 4.6 mph - N/A   Scattered Clouds
8:53 PM 39.9 °F - 39.0 °F 97% 29.96 in 10.0 mi Calm Calm - 0.00 in   Mostly Cloudy
9:53 PM 37.9 °F 35.5 °F 37.0 °F 97% 29.97 in 10.0 mi ENE 3.5 mph - N/A   Clear
10:53 PM 35.1 °F 32.2 °F 34.0 °F 96% 29.97 in 10.0 mi NE 3.5 mph - N/A   Clear
11:53 PM 37.0 °F 31.6 °F 36.0 °F 96% 29.98 in 10.0 mi East 6.9 mph - N/A   Overcast